Regional Weather Roundup
Issued by NWS

Home | Current Version | Previous Version | Text Only | Print | Product List | Glossary On
Versions: 1 2 3 4 5 6 7 8 9 10 11 12 13 14 15 16 17 18 19 20 21 22 23 24 25 26 27 28 29 30 31 32 33 34 35 36 37 38 39 40 41 42 43 44 45 46 47 48 49 50
000
ASUS43 KMKX 161511
RWRWI

WISCONSIN REGIONAL WEATHER ROUNDUP
NATIONAL WEATHER SERVICE MILWAUKEE/SULLIVAN WI
900 AM CST MON JAN 16 2017

NOTE: "FAIR" INDICATES FEW OR NO CLOUDS BELOW 12,000 FEET WITH NO
SIGNIFICANT WEATHER AND/OR OBSTRUCTIONS TO VISIBILITY.

WIZ001-002-006>008-014>016-023>028-161600-
NORTHWEST WISCONSIN

CITY           SKY/WX    TMP DP  RH WIND       PRES   REMARKS
SUPERIOR ARPT  CLOUDY    15  13  92 SW5       30.17S FOG     WCI   7
ASHLAND        CLOUDY    20  14  77 SW6       30.18S WCI  12
HAYWARD        CLOUDY     4  -1  80 NE6       30.17S HAZE    WCI  -7
SIREN          CLOUDY     4   1  83 S3        30.17F FOG
CUMBERLAND     CLOUDY     3   0  85 CALM      30.17S FOG
RICE LAKE      CLOUDY     0  -4  83 CALM      30.21S
CHETEK         CLOUDY     1  -3  84 CALM      30.20S
LADYSMITH      CLOUDY     2  -2  84 CALM      30.21R
EAU CLAIRE     MOSUNNY   10   7  87 NE5       30.19F WCI   2
MENOMONIE      CLOUDY     6   2  86 CALM      30.20S FOG
NEW RICHMOND   CLOUDY     9   6  87 CALM      30.17F FOG
OSCEOLA        CLOUDY     9   7  89 E5        30.21S WCI   1
$$

WIZ003>005-009-010-017-018-161600-
NORTH CENTRAL WISCONSIN

CITY           SKY/WX    TMP DP  RH WIND       PRES   REMARKS
MANITOWISH WTR CLOUDY     4   2  91 CALM      30.16S
ARBOR VITAE    CLOUDY     3  -1  83 CALM      30.16F
WOODRUFF       CLOUDY     3  -1  83 CALM      30.16F
RHINELANDER    CLOUDY    14  11  87 CALM      30.18S FOG
EAGLE RIVER    CLOUDY     2  -3  81 CALM      30.17S
LAND O LAKES   CLOUDY     5   2  88 CALM      30.18S
PHILLIPS       CLOUDY   N/A N/A N/A CALM      30.17F
TOMAHAWK       CLOUDY    -1  -5  83 CALM      30.19S
MEDFORD        CLOUDY     6   2  85 CALM      30.18R
MERRILL        CLOUDY    -2  -7  80 CALM        N/A
$$

WIZ029-030-035-036-043>047-161600-
CENTRAL WISCONSIN

CITY           SKY/WX    TMP DP  RH WIND       PRES   REMARKS
WAUSAU         CLOUDY     6   2  83 CALM      30.20S FOG
MOSINEE        PTSUNNY   10  10 100 CALM      30.21S
MARSHFIELD     CLOUDY    11   7  84 NE5       30.18S FOG     WCI   3
STEVENS POINT  CLOUDY     4   1  86 CALM      30.22S FOG
WAUPACA        MOSUNNY   18  13  82 CALM      30.24S
WAUTOMA        CLOUDY    21  17  84 CALM      30.24F
WISC RAPIDS    CLOUDY    14  13  95 CALM      30.22F
CAMP DOUGLAS   CLOUDY    23  18  78 CALM      30.20F
$$

WIZ011>013-019>022-031-037>040-048>050-161600-
NORTHEAST WISCONSIN

CITY           SKY/WX    TMP DP  RH WIND       PRES   REMARKS
ANTIGO         CLOUDY     5   3  90 NE5       30.20R WCI  -4
SHAWANO        MOSUNNY   15  11  84 CALM      30.24S
OCONTO         CLOUDY    16  12  83 CALM      30.25S
STURGEON BAY   CLOUDY    23  16  74 SW5       30.25S WCI  17
GREEN BAY      CLOUDY    20  16  84 S3        30.25S
MANITOWOC      CLOUDY    25  18  74 CALM      30.26F
APPLETON       PTSUNNY   19  16  86 S3        30.23R
CLINTONVILLE   MOSUNNY   10   5  79 CALM      30.24S
OSHKOSH        CLOUDY    24  19  81 CALM      30.24S HAZE
$$

WIZ032>034-041-042-053>061-161600-
SOUTHWEST WISCONSIN

CITY           SKY/WX    TMP DP  RH WIND       PRES   REMARKS
LA CROSSE      LGT RAIN N/A N/A N/A E6        30.20S
SPARTA         CLOUDY    21  19  91 CALM      30.20F
VIROQUA        CLOUDY    27  25  92 E8        30.16F WCI  19
BOSCOBEL       CLOUDY    30  27  88 NE5       30.20S FOG     WCI  25
PRAIRIE DU CHI CLOUDY    30  27  88 E3        30.18S FOG
PLATTEVILLE    CLOUDY    31  31 100 SE9       30.18S WCI  23
$$

WIZ056-057-062-063-064-067-068-161600-
SOUTH CENTRAL WISCONSIN

CITY           SKY/WX    TMP DP  RH WIND       PRES   REMARKS
REEDSBURG      MIX PCPN  27  25  93 CALM      30.21S
BARABOO/DELLS  MIX PCPN  26  22  84 E5        30.20F WCI  20
LONE ROCK      MIX PCPN  30  26  85 E5        30.21S FOG     WCI  25
MINERAL POINT  CLOUDY    32  32 100 SE8       30.17S FOG     WCI  25
MADISON        FRZ RAIN  30  27  88 E6        30.21F FOG     WCI  24
MIDDLETON      CLOUDY    31  30  96 E6        30.21S WCI  25
WATERTOWN      MIX PCPN  30  29  98 E3        30.23S
MONROE         MIX PCPN  32  30  93 E6        30.18F WCI  26
JANESVILLE     FRZ RAIN  32  32 100 SE9       30.21F WCI  24
$$

WIZ051-052-058>065-066-070>072-161600-
SOUTHEAST WISCONSIN

CITY           SKY/WX    TMP DP  RH WIND       PRES   REMARKS
MILWAUKEE      FRZ RAIN  32  27  81 CALM      30.25F FOG
WAUKESHA       FRZ RAIN  28  25  86 CALM      30.25F
MILWAUKEE/TIMM FRZ RAIN  30  25  80 CALM      30.26F
RACINE         FRZ RAIN  31  27  85 S5        30.27S FOG     WCI  26
KENOSHA        FRZ RAIN  31  26  82 SE7       30.25S WCI  24
FOND DU LAC    CLOUDY    28  18  66 CALM      30.24F
SHEBOYGAN      CLOUDY    24  19  81 S3        30.26S
WEST BEND      MIX PCPN  28  23  80 CALM      30.25S
JUNEAU         MIX PCPN  27  22  82 E6        30.24F WCI  21
$$

LSZ147-162-161600-
LAKE SUPERIOR

STATION/POSITION TIME  TEMP    WIND        PRES    WAVE
                       AIR SEA DIR/SP/G            HT/PER
                 (UTC) (F)     (DEG/KT/KT) (MB)    (FT/S)
DEVILS ISLAND    1400   27     220/ 14/ 18 1021.6R
PORT WING        1440   20     180/  6/  8 1022.0R
SAXON HARBOR     1440   22     180/  5/  7 1021.7R
$$

LMZ867-665-643>646-161600-
LAKE MICHIGAN

STATION/POSITION TIME  TEMP    WIND        PRES    WAVE
                       AIR SEA DIR/SP/G            HT/PER
                 (UTC) (F)     (DEG/KT/KT) (MB)    (FT/S)
NORTHPORT PIER   1440   23        CALM     1024.4R
SISTER BAY       1250   22        CALM       N/A
KEWAUNEE LAKESHO 1448   24     200/  1/  3 1024.3R
SHEBOYGAN LAKESH 1500   30     190/  5/  5 1025.6F
PORT WASHINGTON  1440   29     320/  3/  3 1026.1S
MILWAUKEE LAKESH 1450   30      90/  1/  1   N/A
KENOSHA   LAKESH 1500   31     160/  3/  3 1024.4
$$

TC  - TEMPERATURE IN CELSIUS
VSB - VISIBILITY IN STATUTE MILES
WCI - WIND CHILL INDEX
HX  - HEAT INDEX





USA.gov is the U.S. government's official web portal to all federal, state and local government web resources and services.